Showing default

TRAAC, 205

Orbit data source: Space-Track

TRAAC, 205 is a payload satellite owned by USN BuWeps (US) in LEO that was launched on Wed, 15 Nov 1961 UTC via a THOR ABLESTAR launch vehicle from the Air Force Eastern Test Range (AFETR). Payload-class satellites include a variety of spacecraft equipped with specific instruments for various scientific and technological missions. These include communications satellites like Starlink; space stations such as the ISS; scientific satellites like the Hubble; Earth observation satellites from companies like Planet Labs, Umbra, and HawkEye 360; GPS; miniature CubeSats for education and research; and military/defense satellites.

Loading next visibility...
Identifier
205, 1961-031B
Orbit
LEO
Country
Flag of USUS
Related business
Manufacturer
APL
Mission
Defense Technology
Bus & Motor
TRANSIT 4, Unknown motor
Mass
105 kg wet, 105 kg dry
Launch date (UTC)
1961-11-15 (64 years ago)
Launch vehicle
THOR ABLESTAR
Launch site
Air Force Eastern Test Range (AFETR)
Object type
Payload
Rocket body
Debris
Shape & HBR
Cyl + Ell, 5.0 m
Radar Cross Section
1.323 m², Medium (>0.1 m² and < 1m²)

Expand to show TLE details & history
Last TLE update: 1 day ago

TLE from 1 day ago
0 TRAAC
1 00205U 61031B   25260.48460249  .00000037  00000-0  20873-4 0  9994
2 00205  32.4405  81.2942 0101568  65.5216 295.5959 13.62551642181851
Epoch: 2025-09-17T11:37Z
TLE epoch observation values (Epoch: 2025-09-17T11:37:49.655Z)
Latitude
-0.00002°
Longitude
-89.82261°
Altitude
993.315 km
Speed
7.373 km/s
True Right ascension
05h 25m 10s
True Declination
0° 00' 00"
Sunlit
Object was in daylight at epoch
Visualization orbit readout
Latitude
Unknown
Longitude
Unknown
Altitude
Unknown
Speed
Unknown
Apparent Right ascension
Unknown
Apparent Declination
Unknown
Sunlit
N/A
Visualization observer readout
Local Sidereal Time
12:37:25
Azimuth
Unknown
Elevation
Unknown
Doppler factor
Unknown
Orbital elements
Apogee altitude
1,105.061 km
Perigee altitude
954.579 km
Semi-major axis
7,407.957 km
Eccentricity
0.01016
Inclination
32.4405°
RAAN
81.2942°
Arg. of periapsis
65.5216°
True anomaly
294.54051°
Mean anomaly
295.5959°
Eccentric anomaly
295.06878°
Mean motion
3.40405 °/min
Orbital period
105.76 mins
BSTAR
0.000020873
Loading maneuver chart data...
Computing Atmospheric mass density...
Loading historical data...
Loading historical data...
Loading historical data...
Loading historical data...
Loading historical data...
Loading historical data...
Loading historical data...
Other satellites on launch #31 in the year 1961 (1961-11-15 UTC)

Documentation

Showing up to 5 results
|